Погода в Бавлены

Россия / Владимирская область     56°23′40″N   39°33′50″E
темп.,
°C
ветер,
м/с
пор.,
м/с
влажн.,
%
обл.,
%
осадки,
мм/ч
давл.,
гПа
погр.,
м
20 сентября, пн
пн2000:00+5в71458100 0.0 1022675
03:00+5в81563100 0.1 1022714
06:00+4в81672100 0.7 1021686
09:00+4в91784100 2.6 1021693
12:00+5в91783100 1.0 1021768
15:00+5в91683100 1.4 1021953
18:00+5в91690100 2.4 1021967
21:00+4в91695100 4.6 1021951
21 сентября, вт
вт2100:00+5в81588100 0.4 1020959
03:00+4в81392100 0.6 1019893
06:00+4в81395100 2.5 1018836
09:00+4в71495100 4.3 1017719
12:00+4в71395100 0.9 1017606
15:00+5в61295100 1.1 1017600
18:00+4в61295100 0.5 1016605
21:00+4всв61296100 2.1 1015613
22 сентября, ср
ср2200:00+5всв61296100 2.9 1014607
03:00+5всв61194100 3.1 1014580
06:00+5всв61197100 2.1 1013589
09:00+4всв51096100 5.1 1013584
12:00+5всв5996100 1.0 1013742
15:00+5всв5997100 1.2 1014574
18:00+5всв4998100 0.4 1014549
21:00+6всв4798100 0.4 1015278
23 сентября, чт
чт2300:00+6св3799100 0.4 1015314
03:00+6св3799100 0.7 1014354
06:00+7в4799100 0.1 1014433
09:00+8ююв5109268 0.2 1015546
12:00+8ююв5881100 0.0 1016671
15:00+10ююв5770100 0.0 10161047
18:00+8юв2280100 0.0 101636
21:00+7ююв238594 0.0 101646
24 сентября, пт
пт2400:00+6ю2392100 0.0 101537
03:00+5ю339499 0.0 101541
06:00+6ююв3792100 0.0 1014211
09:00+7ююв4888100 0.1 1013387
12:00+11ю6862100 0.1 10111362
15:00+10ююз4866100 0.1 10101005
18:00+8ю3775100 0.0 1010395
21:00+6ю378994 0.0 1009140